Hauptseite
METAR-TAF:

METAR-TAF

Flughäfen :

Ashtabula County Airport

Ashtabula, Ohio, Vereinigte Staaten

Breite: 41-46-46N, Länge: 080-41-48W, Höhe: 281 m

Beobachtung

Neuester Wetterbericht von vor 48 Minuten, um 22:53 UTC
Wind 3 kt aus unterschiedlichen Richtungen
Temperatur 13°C
Luftfeuchtigkeit 35%
Luftdruck 1014 hPa
Sichtweite: 16.1 km
Himmel klar

METAR: KHZY 142253Z AUTO VRB03KT 10SM CLR 13/M02 A2993 RMK AO2 SLP136 T01281017

Zeit: 19:41 (23:41 UTC)


TAF: fehlend

Wetterbeobachtungen und Prognosen von mehr als 4000 Flughäfen (METAR und TAF Bericht).

Die verfügbaren Stationen werden durch gelbe und rote Markierungen auf der Karte dargestellt.

Führen Sie die Maus auf sie, um den Namen der Station zu sehen.

Darauf klicken, um die Beobachtung von Wetterbeobachtungen und Prognosen zu sehen.

Um die Karte zu ändern : klicken Sie auf den grünen Tasten mit einem schwarzen Kreuz Zum Vergrößern, auf den grünen Button mit einem Gedankenstrich zu verkleinern, oder auf die grünen Pfeile für benachbarte Karten.


METAR-TAF: